[[{"header":{"parameterUnit":"m.s-1","parameterCategory":1,"la1":30.2991,"la2":30.254,"lo1":-89.0895,"lo2":-89.0444,"dy":0.0017,"dx":0.0017,"nx":28,"ny":28,"refTime":"2025-04-11T03:00:00:Z","depth":0,"parameterNumber":2,"parameterNumberName":"U-component_of_WINDS"},"data":[0,0,0,0,0,0,0,0,0,0,0,0,0,0,0,0,0,0,0,0,0,0,0,0,0,0,0,0,0,0,0,0,0,0,0,0,0,0,0,0,0,0,0,0,0,0,0,0,0,0,0,0,0,0,0,0,0,0,-0.9794,-0.9795,0,-0.9895,-0.9897,-0.9898,-0.9858,-0.9856,-0.9853,-0.9851,-0.9958,-0.9963,-0.9968,0,0,0,0,0,0,0,0,0,0,0,0,0,-0.9567,-0.9571,-0.9793,-0.9795,-0.9796,-0.9895,-0.9897,-0.9898,-0.9859,-0.9856,-0.9853,-0.985,-0.9956,-0.9962,-0.9969,0,0,0,0,0,0,0,0,0,0,0,0,0,-0.9667,-0.9573,-0.9793,-0.9788,-0.9789,-0.9895,-0.9897,-0.9898,-0.9859,-0.9856,-0.9852,-0.9849,-0.9955,-0.9962,-0.9969,-1.0087,0,0,-0.9993,-0.9996,0,0,0,0,0,0,0,0,-0.9661,-0.9675,-0.9788,-0.9789,-0.979,-0.986,-0.9856,-0.9962,-0.986,-0.9833,-0.9851,-0.9847,-0.9929,-0.9938,-0.9965,-1.0092,-1.0097,-0.9993,-0.9998,-1.0001,-1.0003,0,0,0,0,0,0,0,-0.9654,-0.9671,-0.9834,-0.9789,-0.9791,-0.9782,-0.9792,-0.9876,-0.9899,-0.9835,-0.9832,-0.9844,-0.9928,-0.9958,-0.9967,-1.0098,-0.9993,-1.0,-1.0004,-1.0007,-1.0328,-1.0332,0,0,0,0,0,0,-0.9647,-0.9665,-0.9831,-0.9837,-0.9715,-0.9788,-0.98,-0.9841,-0.9898,-0.9904,-0.9847,-0.9842,-0.9947,-0.9959,-0.9971,-1.0114,-1.0001,-1.0008,-1.0012,-1.0324,-1.0329,-1.0333,0,0,0,0,0,0,-0.9642,-0.9662,-0.9826,-0.975,-0.9771,-0.9796,-0.9843,-0.9845,-0.9875,-0.9908,-0.9912,-0.9873,-0.9944,-0.996,-1.0059,-1.0117,-1.0012,-1.0018,-1.0319,-1.0326,-1.0331,-1.0401,0,0,0,0,0,0,-0.9636,-0.966,-0.9705,-0.9752,-0.9775,-0.9912,-0.9846,-0.985,-0.9887,-0.9882,-0.9933,-0.9938,-0.9943,-1.0048,-1.0066,-1.0126,-1.0024,-1.0314,-1.0322,-1.0329,-1.0393,-1.0408,-1.0421,0,0,0,0,0,-0.9628,-0.9721,-0.9708,-0.9728,-0.9831,-0.9916,-0.9929,-0.9932,-0.9892,-0.9938,-0.9959,-0.9937,-1.0107,-1.0058,-1.0079,-1.0141,-1.0311,-1.032,-1.0329,-1.0387,-1.0405,-1.0421,0,0,0,0,0,0,-0.9683,-0.9727,-0.9713,-0.9824,-0.9866,-0.9909,-0.9967,-0.9951,-1.0006,-0.9998,-1.0,-1.0012,-1.0113,-1.0136,-1.0081,-1.0259,-1.0203,-1.0217,-1.024,-1.0258,-1.0271,-1.0265,-1.0031,0,0,0,0,0,-0.9707,-0.9771,-0.9807,-0.9902,-0.9923,-0.9941,-0.9978,-0.9976,-1.0021,-1.0039,-1.0067,-1.0112,-1.0175,-1.0217,-1.0277,-1.0395,-1.0407,-1.0448,-1.0462,-1.0473,-1.0486,-1.0551,-1.057,-1.0362,-1.0362,-1.0362,0,0,-0.976,-0.9792,-0.9833,-0.9913,-0.9946,-1.0014,-0.9957,-1.003,-1.0081,-1.005,-1.0145,-1.0167,-1.0217,-1.0326,-1.0375,-1.0348,-1.0545,-1.0485,-1.0493,-1.05,-1.0562,-1.0582,-1.0599,-1.0369,-1.0367,-1.0366,0,0,-0.989,-0.992,-1.0003,-1.0036,-1.0086,-1.0097,-1.0116,-1.0161,-1.0175,-1.0269,-1.0248,-1.0308,-1.0417,-1.0453,-1.0486,-1.0629,-1.0611,-1.0648,-1.0722,-1.0785,-1.0802,-1.0816,-1.0869,-1.0888,-1.066,-1.066,-1.066,0,-0.995,-1.005,-1.0048,-1.0123,-1.016,-1.0133,-1.0218,-1.025,-1.0317,-1.0344,-1.0312,-1.0448,-1.048,-1.0597,-1.0632,-1.0658,-1.0682,-1.0644,-1.0799,-1.0814,-1.0827,-1.0878,-1.0897,-1.0664,-1.0664,-1.0663,-1.0663,0,-1.0121,-1.0191,-1.0252,-1.0316,-1.0359,-1.0439,-1.045,-1.0493,-1.0487,-1.0501,-1.0599,-1.0635,-1.0702,-1.0729,-1.0724,-1.0846,-1.0828,-1.0798,-1.0743,-1.0852,-1.0899,-1.0918,-1.0671,-1.0669,-1.0668,-1.0667,0,0,-1.0293,-1.0353,-1.0376,-1.0405,-1.0457,-1.0511,-1.0589,-1.0654,-1.0693,-1.0739,-1.0806,-1.0897,-1.0869,-1.0907,-1.0905,-1.096,-1.1073,-1.0923,-1.0924,-1.0952,-1.1212,-1.1236,-1.1259,-1.1059,-1.1063,-1.1066,-1.1208,0,-1.0429,-1.0566,-1.0566,-1.0692,-1.0757,-1.0732,-1.08,-1.0839,-1.0854,-1.0912,-1.0928,-1.0995,-1.0951,-1.0974,-1.1027,-1.1048,-1.1125,-1.1037,-1.1123,-1.1127,-1.1115,-1.1283,-1.131,-1.1443,-1.1226,-1.123,-1.1232,0,-1.0607,-1.0659,-1.0792,-1.0834,-1.0862,-1.0923,-1.0982,-1.1037,-1.1081,-1.1088,-1.1129,-1.1118,-1.1199,-1.1138,-1.1249,-1.1189,-1.1224,-1.1239,-1.1244,-1.1255,-1.1188,-1.1301,-1.1485,-1.1506,-1.1261,-1.1258,-1.1256,0,-1.0722,-1.0824,-1.0917,-1.0943,-1.0994,-1.1038,-1.1061,-1.1101,-1.114,-1.1192,-1.1217,-1.1278,-1.1312,-1.1359,-1.1365,-1.132,-1.1477,-1.1417,-1.1487,-1.1487,-1.1524,-1.1523,-1.1719,-1.1542,-1.1541,-1.1541,-1.1541,0,-1.0877,-1.096,-1.097,-1.1028,-1.112,-1.1118,-1.121,-1.1229,-1.1265,-1.1326,-1.1307,-1.1365,-1.1368,-1.1428,-1.1433,-1.1525,-1.154,-1.1549,-1.155,-1.1553,-1.1552,-1.1578,-1.157,-1.1546,-1.1545,-1.1544,-1.1543,0,-1.1022,-1.1031,-1.1132,-1.1171,-1.1182,-1.1249,-1.1283,-1.1338,-1.135,-1.1428,-1.1446,-1.1466,-1.1535,-1.1545,-1.1626,-1.1629,-1.1741,-1.1731,-1.1726,-1.1726,-1.1796,-1.1791,-1.2019,-1.2049,-1.1849,-1.1851,-1.1853,0,-1.1122,-1.1185,-1.123,-1.127,-1.1295,-1.1359,-1.1398,-1.1398,-1.144,-1.1494,-1.1543,-1.161,-1.1664,-1.1776,-1.1798,-1.186,-1.1853,-1.1928,-1.1862,-1.1863,-1.1857,-1.1854,-1.1861,-1.1942,-1.1944,-1.1946,-1.1948,0,-1.1298,-1.1299,-1.1356,-1.1416,-1.1463,-1.1509,-1.1553,-1.1586,-1.1592,-1.164,-1.171,-1.1752,-1.1834,-1.1901,-1.1962,-1.1987,-1.1969,-1.1967,-1.1987,-1.1993,-1.1989,-1.1994,-1.1764,-1.1963,-1.1962,-1.1961,-1.196,-1.1959,-1.1426,-1.1481,-1.1521,-1.1586,-1.1618,-1.1659,-1.1713,-1.1731,-1.179,-1.1856,-1.1852,-1.193,-1.1972,-1.2052,-1.208,-1.2141,-1.2117,-1.2145,-1.2153,-1.216,-1.2169,-1.1976,-1.2152,-1.2151,-1.2151,-1.215,-1.215,0,-1.1603,-1.1628,-1.1686,-1.1748,-1.1799,-1.1775,-1.1822,-1.1866,-1.1935,-1.1974,-1.2027,-1.2108,-1.2173,-1.2199,-1.2262,-1.2306,-1.23,-1.2323,-1.2322,-1.2328,-1.2186,-1.2163,-1.2327,-1.2327,-1.2327,-1.2327,-1.2327,-1.2327,-1.1702,-1.1795,-1.1801,-1.1909,-1.1933,-1.2009,-1.2038,-1.2076,-1.2107,-1.2198,-1.2252,-1.2267,-1.2302,-1.2367,-1.2426,-1.2432,-1.2457,-1.2485,-1.2488,-1.2355,-1.2338,-1.2321,-1.23,-1.249,-1.249,-1.2625,-1.2626,-1.2627]},{"header":{"parameterUnit":"m.s-1","parameterCategory":1,"la1":30.2991,"la2":30.254,"lo1":-89.0895,"lo2":-89.0444,"dy":0.0017,"dx":0.0017,"nx":28,"ny":28,"refTime":"2025-04-11T03:00:00:Z","depth":0,"parameterNumber":3,"parameterNumberName":"V-component_of_WINDS"},"data":[0,0,0,0,0,0,0,0,0,0,0,0,0,0,0,0,0,0,0,0,0,0,0,0,0,0,0,0,0,0,0,0,0,0,0,0,0,0,0,0,0,0,0,0,0,0,0,0,0,0,0,0,0,0,0,0,0,0,-5.2238,-5.2239,0,-5.2389,-5.2391,-5.2393,-5.2321,-5.2318,-5.2314,-5.231,-5.2463,-5.247,-5.2478,0,0,0,0,0,0,0,0,0,0,0,0,0,-5.1883,-5.189,-5.2238,-5.2239,-5.2241,-5.2389,-5.2391,-5.2393,-5.2322,-5.2317,-5.2313,-5.2308,-5.246,-5.2469,-5.2478,0,0,0,0,0,0,0,0,0,0,0,0,0,-5.2036,-5.1892,-5.2237,-5.2224,-5.2224,-5.2389,-5.2391,-5.2394,-5.2323,-5.2317,-5.2312,-5.2306,-5.2457,-5.2468,-5.248,-5.2665,0,0,-5.2515,-5.2519,0,0,0,0,0,0,0,0,-5.2028,-5.2049,-5.2224,-5.2225,-5.2226,-5.2331,-5.2322,-5.2485,-5.2325,-5.2286,-5.231,-5.2303,-5.2423,-5.2437,-5.2478,-5.2672,-5.2679,-5.2516,-5.2522,-5.2527,-5.2531,0,0,0,0,0,0,0,-5.2017,-5.2042,-5.2297,-5.2226,-5.2228,-5.2209,-5.2224,-5.2352,-5.2385,-5.2288,-5.2284,-5.2303,-5.2422,-5.2467,-5.2481,-5.2681,-5.2515,-5.2525,-5.2532,-5.2537,-5.3034,-5.304,0,0,0,0,0,0,-5.2007,-5.2034,-5.2293,-5.2302,-5.2111,-5.222,-5.2237,-5.2303,-5.2383,-5.239,-5.2307,-5.2299,-5.245,-5.2468,-5.2486,-5.2708,-5.2527,-5.2538,-5.2545,-5.3027,-5.3035,-5.3042,0,0,0,0,0,0,-5.2,-5.2031,-5.2286,-5.2167,-5.2198,-5.2232,-5.2306,-5.2309,-5.2353,-5.2397,-5.2402,-5.2348,-5.2447,-5.247,-5.2621,-5.2713,-5.2543,-5.2554,-5.302,-5.303,-5.3038,-5.3155,0,0,0,0,0,0,-5.199,-5.2029,-5.2101,-5.2169,-5.2205,-5.2421,-5.2312,-5.2316,-5.2374,-5.2364,-5.2436,-5.2443,-5.2444,-5.2604,-5.2633,-5.2725,-5.2563,-5.3012,-5.3024,-5.3035,-5.3143,-5.3167,-5.3188,0,0,0,0,0,-5.1978,-5.2127,-5.2105,-5.2136,-5.2295,-5.2426,-5.2446,-5.2445,-5.2381,-5.2453,-5.2481,-5.244,-5.2698,-5.2621,-5.2651,-5.2749,-5.3006,-5.3021,-5.3035,-5.3133,-5.3162,-5.3187,0,0,0,0,0,0,-5.2069,-5.2136,-5.2112,-5.2288,-5.2352,-5.2414,-5.2505,-5.2477,-5.256,-5.2547,-5.2541,-5.2558,-5.2714,-5.2746,-5.2659,-5.2932,-5.2842,-5.2863,-5.2906,-5.2934,-5.2956,-5.2946,-5.2572,0,0,0,0,0,-5.2109,-5.2211,-5.2263,-5.2414,-5.2447,-5.2471,-5.2527,-5.2521,-5.2587,-5.2613,-5.2652,-5.2716,-5.2811,-5.2874,-5.2964,-5.3146,-5.3161,-5.3229,-5.3251,-5.3269,-5.3288,-5.3386,-5.3416,-5.3089,-5.3088,-5.3088,0,0,-5.2194,-5.2243,-5.2308,-5.2433,-5.2482,-5.2586,-5.2494,-5.2608,-5.2685,-5.263,-5.2776,-5.2806,-5.2877,-5.3045,-5.312,-5.3076,-5.3381,-5.3287,-5.3302,-5.3311,-5.3404,-5.3435,-5.3462,-5.3098,-5.3097,-5.3095,0,0,-5.2402,-5.245,-5.258,-5.2631,-5.2706,-5.272,-5.2751,-5.2817,-5.2836,-5.2982,-5.2942,-5.3033,-5.3197,-5.3249,-5.3297,-5.3523,-5.3489,-5.3552,-5.367,-5.3765,-5.3791,-5.3814,-5.3895,-5.3924,-5.3571,-5.3571,-5.3571,0,-5.2498,-5.2655,-5.265,-5.2768,-5.2824,-5.2779,-5.291,-5.2959,-5.3059,-5.3099,-5.3048,-5.3252,-5.3297,-5.3476,-5.3531,-5.3571,-5.3606,-5.3545,-5.3788,-5.3811,-5.3832,-5.3909,-5.3939,-5.3578,-5.3577,-5.3577,-5.3576,0,-5.2769,-5.2878,-5.2974,-5.3073,-5.3139,-5.3263,-5.3276,-5.3343,-5.3331,-5.335,-5.3498,-5.355,-5.3649,-5.3691,-5.3679,-5.3868,-5.3838,-5.3788,-5.3697,-5.3871,-5.3943,-5.3972,-5.3589,-5.3586,-5.3584,-5.3582,0,0,-5.304,-5.3134,-5.317,-5.3213,-5.3292,-5.3376,-5.3496,-5.3594,-5.3652,-5.3722,-5.3823,-5.3962,-5.3916,-5.397,-5.3964,-5.4047,-5.4223,-5.3987,-5.3988,-5.4029,-5.4433,-5.4471,-5.4505,-5.4199,-5.4205,-5.421,-5.4427,0,-5.3254,-5.3468,-5.3467,-5.3663,-5.3763,-5.3721,-5.3826,-5.3885,-5.3905,-5.3992,-5.4014,-5.4113,-5.4044,-5.4077,-5.4158,-5.4185,-5.4304,-5.4168,-5.4293,-5.4297,-5.4277,-5.4543,-5.4584,-5.4787,-5.4455,-5.446,-5.4463,0,-5.3534,-5.3613,-5.382,-5.3883,-5.3925,-5.402,-5.4109,-5.4192,-5.4257,-5.4266,-5.4327,-5.4307,-5.4428,-5.4333,-5.4499,-5.4407,-5.4457,-5.4478,-5.4486,-5.4498,-5.4392,-5.4563,-5.4851,-5.4882,-5.4508,-5.4504,-5.4501,0,-5.3711,-5.387,-5.4014,-5.4053,-5.413,-5.4197,-5.4232,-5.4292,-5.435,-5.4427,-5.4465,-5.4555,-5.4604,-5.4673,-5.4678,-5.4608,-5.4846,-5.4751,-5.4856,-5.4856,-5.4909,-5.4906,-5.521,-5.494,-5.494,-5.4939,-5.4938,0,-5.3951,-5.408,-5.4095,-5.4184,-5.4326,-5.4322,-5.4462,-5.4491,-5.4544,-5.4636,-5.4604,-5.4691,-5.4691,-5.478,-5.4783,-5.492,-5.4943,-5.4953,-5.4952,-5.4956,-5.4955,-5.499,-5.4976,-5.4947,-5.4945,-5.4944,-5.4942,0,-5.4175,-5.4191,-5.4345,-5.4405,-5.4423,-5.4525,-5.4575,-5.4659,-5.4676,-5.4793,-5.482,-5.4847,-5.4949,-5.496,-5.5079,-5.5081,-5.5247,-5.5231,-5.5225,-5.5223,-5.5328,-5.5318,-5.5666,-5.5712,-5.5411,-5.5414,-5.5416,0,-5.4328,-5.4426,-5.4496,-5.4556,-5.4595,-5.4692,-5.4751,-5.475,-5.4813,-5.4894,-5.4968,-5.5067,-5.5147,-5.5312,-5.5341,-5.5431,-5.5418,-5.5533,-5.5431,-5.5432,-5.542,-5.5414,-5.5424,-5.5553,-5.5557,-5.5559,-5.5562,0,-5.4597,-5.46,-5.4687,-5.4778,-5.485,-5.4921,-5.4987,-5.5038,-5.5045,-5.5117,-5.5222,-5.5283,-5.5405,-5.5503,-5.5592,-5.5626,-5.5596,-5.5593,-5.5622,-5.5628,-5.5621,-5.5627,-5.528,-5.5586,-5.5583,-5.5582,-5.558,-5.5579,-5.4791,-5.4875,-5.4938,-5.5036,-5.5086,-5.5148,-5.523,-5.5257,-5.5344,-5.5444,-5.5437,-5.5553,-5.5613,-5.5729,-5.577,-5.5859,-5.582,-5.5862,-5.5873,-5.5884,-5.5895,-5.5606,-5.5875,-5.5874,-5.5873,-5.5873,-5.5872,0,-5.5059,-5.5097,-5.5187,-5.5281,-5.5358,-5.5322,-5.5393,-5.546,-5.5563,-5.5622,-5.5701,-5.582,-5.5915,-5.5951,-5.6044,-5.6108,-5.6096,-5.6133,-5.6128,-5.6137,-5.5924,-5.589,-5.6141,-5.614,-5.614,-5.614,-5.614,-5.614,-5.5208,-5.5349,-5.5359,-5.5524,-5.556,-5.5674,-5.5717,-5.5774,-5.5822,-5.5957,-5.6036,-5.6059,-5.6109,-5.6204,-5.6289,-5.6297,-5.6333,-5.6375,-5.6377,-5.6179,-5.6152,-5.6126,-5.6094,-5.6383,-5.6383,-5.6582,-5.6584,-5.6586]}]]